Home > Weather > Virginia Beach > Past weeks

Flag for USA Past Weather in Virginia Beach, Virginia, USA — Yesterday and Last 2 Weeks

Now
84 °F

Overcast.


Feels Like: 90 °F
Forecast: 79 / 93 °F
Wind: 5 mph from Southwest

Location: Virginia Beach - Oceana

Current Time: Jul 27, 2016 at 1:51:22 AM

Latest Report: Jul 27, 2016 at 12:56 AM


Visibility: 10 mi

Pressure: 29.94 "Hg

Humidity: 70%

Dew Point: 73 °F

Location of Virginia BeachLocation

Past Weather in Virginia Beach — Graph

°F

Virginia Beach Temperature Yesterday

Maximum temperature yesterday: 98 °F (at 12:56 PM)
Minimum temperature yesterday: 84 °F (at 4:56 AM)
Average temperature yesterday: 89 °F

High & Low Weather Summary for the Past Weeks

 TemperatureHumidityPressure
High101 °F (Jul 14, 2:56 PM)85% (Jul 15, 6:56 PM)30.20 "Hg (Jul 15, 6:56 PM)
Low73 °F (Jul 20, 2:56 AM)34% (Jul 14, 3:56 PM)29.89 "Hg (Jul 23, 5:56 PM)
Average87 °F63%30.04 "Hg
* Reported Jul 12 12:56 AM — Jul 27 12:56 AM, Virginia Beach, Weather by CustomWeather, © 2016

Note: Actual official high and low records may vary slightly from our data, if they occured in-between our weather recording intervals... More about our weather records

Advertising

Virginia Beach Weather History for the Previous 24 Hours

Scroll right to see more
 ConditionsComfort  
Time TempWeatherWind HumidityBarometerVisibility
12:56 AM
Wed, Jul 27
84 °FOvercast.5 mph70%29.94 "Hg10 mi
11:56 PM
Tue, Jul 26
84 °FOvercast.5 mph70%29.95 "Hg10 mi
10:56 PM84 °FMostly cloudy.6 mph67%29.94 "Hg10 mi
9:56 PM85 °FPartly cloudy.No wind65%29.93 "Hg10 mi
8:56 PM87 °FPartly sunny.6 mph63%29.93 "Hg10 mi
7:56 PM87 °FBroken clouds.No wind61%29.92 "Hg10 mi
6:56 PM88 °FThunderstorms. Partly sunny.14 mph59%29.93 "Hg10 mi
5:56 PM89 °FBroken clouds.7 mph65%29.92 "Hg10 mi
5:04 PM93 °FBroken clouds.9 mph60%29.90 "Hg10 mi
3:56 PM95 °FThunderstorms. Broken clouds.12 mph54%29.92 "Hg10 mi
2:56 PM98 °FPartly sunny.7 mph43%29.93 "Hg10 mi
1:56 PM98 °FScattered clouds.9 mph45%29.94 "Hg10 mi
12:56 PM98 °FScattered clouds.9 mph45%29.95 "Hg10 mi
11:56 AM97 °FScattered clouds.6 mph48%29.95 "Hg10 mi
10:56 AM95 °FScattered clouds.10 mph52%29.95 "Hg10 mi
9:56 AM92 °FScattered clouds.13 mph56%29.95 "Hg10 mi
8:56 AM89 °FScattered clouds.13 mph59%29.95 "Hg10 mi
7:56 AM86 °FScattered clouds.14 mph65%29.94 "Hg10 mi
6:56 AM84 °FPassing clouds.14 mph67%29.95 "Hg10 mi
5:56 AM84 °FPassing clouds.14 mph67%29.94 "Hg10 mi
4:56 AM84 °FPartly cloudy.13 mph67%29.93 "Hg10 mi
3:56 AM85 °FPassing clouds.14 mph65%29.93 "Hg10 mi
2:56 AM86 °FPassing clouds.12 mph65%29.94 "Hg10 mi
1:56 AM87 °FPassing clouds.15 mph63%29.94 "Hg10 mi
Weather by CustomWeather, © 2016

See weather overviewHow to use our weather pages